IBE31AV LEMD-EDDF

Flight info

Callsign IBE31AV
Flight time N/A
Altitude 36000
Route PINAR N870 SEGRE N871 TOPTU DCT TOU DCT GAI DCT MEN DCT NINUN DCT LATAM DCT ETREK DCT LTP DCT SOPLO DCT OMASI DCT KINNI DCT SOSAL DCT KORED DCT BERSU DCT DITON/N0450F370 DCT LADOL/N0453F360 T163 EMPAX EMPAX5C
Aircraft A320/M-SDE3FGHIRWY/LB1

Departure

Time 2026-05-01 14:34
Airport Adolfo Suárez Madrid–Barajas Airport (LEMD)

Arrival

Time N/A
Airport Frankfurt Main Airport (EDDF)
Time Latitude Longitude Altitude Speed Heading
2026-05-01 14:06 40.49401 -3.58981 1983 ft 0 kts 268°
2026-05-01 14:19 40.49401 -3.58979 2010 ft 1 kts 268°
2026-05-01 14:19 40.49402 -3.58958 1980 ft 3 kts 261°
2026-05-01 14:19 40.49406 -3.58933 1980 ft 3 kts 244°
2026-05-01 14:19 40.49417 -3.58912 1982 ft 3 kts 213°
2026-05-01 14:20 40.49431 -3.58904 1980 ft 1 kts 179°
2026-05-01 14:20 40.49436 -3.58904 1980 ft 0 kts 179°
2026-05-01 14:23 40.49408 -3.58904 1980 ft 4 kts 179°
2026-05-01 14:24 40.49379 -3.58903 1982 ft 4 kts 179°
2026-05-01 14:24 40.49346 -3.58902 1980 ft 8 kts 179°
2026-05-01 14:24 40.49285 -3.58902 1980 ft 10 kts 179°
2026-05-01 14:24 40.49219 -3.58900 1980 ft 9 kts 179°
2026-05-01 14:25 40.49154 -3.58903 1980 ft 10 kts 181°
2026-05-01 14:25 40.49088 -3.58900 1980 ft 9 kts 178°
2026-05-01 14:25 40.49027 -3.58897 1980 ft 8 kts 176°
2026-05-01 14:25 40.48967 -3.58899 1980 ft 11 kts 185°
2026-05-01 14:26 40.48889 -3.58902 1982 ft 12 kts 176°
2026-05-01 14:26 40.48761 -3.58825 1980 ft 11 kts 88°
2026-05-01 14:26 40.48761 -3.58712 1980 ft 16 kts 90°
2026-05-01 14:27 40.48762 -3.58573 1980 ft 14 kts 88°
2026-05-01 14:27 40.48761 -3.58454 1980 ft 12 kts 93°
2026-05-01 14:27 40.48762 -3.58345 1980 ft 14 kts 89°
2026-05-01 14:28 40.48764 -3.58114 1980 ft 11 kts 89°
2026-05-01 14:28 40.48765 -3.57991 1980 ft 15 kts 89°
2026-05-01 14:28 40.48765 -3.57862 1984 ft 15 kts 92°
2026-05-01 14:28 40.48763 -3.57686 1980 ft 20 kts 91°
2026-05-01 14:29 40.48766 -3.57506 1983 ft 19 kts 88°
2026-05-01 14:29 40.48765 -3.57329 1980 ft 21 kts 91°
2026-05-01 14:30 40.48767 -3.56726 1980 ft 23 kts 91°
2026-05-01 14:30 40.48768 -3.56509 1980 ft 24 kts 90°
2026-05-01 14:30 40.48768 -3.56285 1980 ft 24 kts 90°
2026-05-01 14:31 40.48906 -3.56145 1980 ft 13 kts
2026-05-01 14:31 40.49034 -3.56143 1982 ft 22 kts 359°
2026-05-01 14:31 40.49187 -3.56144 1980 ft 22 kts 359°
2026-05-01 14:31 40.49343 -3.56144 1980 ft 20 kts
2026-05-01 14:32 40.49410 -3.56065 1981 ft 13 kts 84°
2026-05-01 14:32 40.49429 -3.55967 1982 ft 9 kts 53°
2026-05-01 14:32 40.49472 -3.55910 1980 ft 9 kts 50°
2026-05-01 14:32 40.49503 -3.55850 1980 ft 7 kts 63°
2026-05-01 14:33 40.49496 -3.55800 1982 ft 5 kts 122°
2026-05-01 14:33 40.49449 -3.55742 1980 ft 20 kts 141°
2026-05-01 14:33 40.49178 -3.55467 1980 ft 84 kts 143°
2026-05-01 14:33 40.48551 -3.54831 1983 ft 141 kts 142°
2026-05-01 14:34 40.47652 -3.53925 2070 ft 177 kts 144°
2026-05-01 14:34 40.46708 -3.52969 2772 ft 169 kts 144°
2026-05-01 14:34 40.45796 -3.52047 3548 ft 164 kts 144°
2026-05-01 14:34 40.44853 -3.51062 3901 ft 184 kts 144°
2026-05-01 14:35 40.43796 -3.49993 4188 ft 206 kts 144°
2026-05-01 14:35 40.42827 -3.48498 4599 ft 227 kts 121°
2026-05-01 14:35 40.42112 -3.46604 5254 ft 235 kts 117°
2026-05-01 14:35 40.41393 -3.44646 5998 ft 240 kts 118°
2026-05-01 14:36 40.40669 -3.42663 6778 ft 242 kts 118°
2026-05-01 14:36 40.39938 -3.40659 7520 ft 245 kts 119°
2026-05-01 14:36 40.39221 -3.38610 8250 ft 250 kts 111°
2026-05-01 14:36 40.39038 -3.36323 8962 ft 260 kts 83°
2026-05-01 14:37 40.39697 -3.34107 9698 ft 267 kts 55°
2026-05-01 14:37 40.41140 -3.32458 10069 ft 287 kts 23°
2026-05-01 14:37 40.43097 -3.31860 10635 ft 293 kts
2026-05-01 14:37 40.45131 -3.31529 11334 ft 296 kts
2026-05-01 14:38 40.47186 -3.31194 12064 ft 299 kts
2026-05-01 14:38 40.49262 -3.30852 12782 ft 302 kts
2026-05-01 14:38 40.51359 -3.30500 13497 ft 305 kts
2026-05-01 14:38 40.53479 -3.30138 14182 ft 308 kts
2026-05-01 14:39 40.55613 -3.29772 14821 ft 310 kts
2026-05-01 14:39 40.57760 -3.29404 15466 ft 312 kts
2026-05-01 14:39 40.59896 -3.29039 16101 ft 315 kts
2026-05-01 14:39 40.62075 -3.28668 16736 ft 317 kts
2026-05-01 14:40 40.64319 -3.28287 16973 ft 335 kts
2026-05-01 14:40 40.66696 -3.27883 17109 ft 353 kts
2026-05-01 14:40 40.69201 -3.27456 17243 ft 371 kts
2026-05-01 14:40 40.71821 -3.27008 17380 ft 388 kts
2026-05-01 14:41 40.74554 -3.26539 17518 ft 403 kts
2026-05-01 14:41 40.77380 -3.26050 17729 ft 414 kts
2026-05-01 14:41 40.80176 -3.25222 18146 ft 422 kts 18°
2026-05-01 14:41 40.82800 -3.23448 18604 ft 428 kts 34°
2026-05-01 14:42 40.85016 -3.20802 19016 ft 433 kts 49°
2026-05-01 14:42 40.86644 -3.17453 19432 ft 437 kts 65°
2026-05-01 14:42 40.87596 -3.13637 19843 ft 439 kts 76°
2026-05-01 14:42 40.88368 -3.09721 20260 ft 442 kts 76°
2026-05-01 14:43 40.89140 -3.05773 20663 ft 445 kts 76°
2026-05-01 14:43 40.89915 -3.01796 21101 ft 447 kts 76°
2026-05-01 14:43 40.90693 -2.97808 21515 ft 450 kts 76°
2026-05-01 14:43 40.91474 -2.93792 21911 ft 452 kts 76°
2026-05-01 14:44 40.92258 -2.89751 22313 ft 455 kts 76°
2026-05-01 14:44 40.93842 -2.81606 23046 ft 460 kts 76°
2026-05-01 14:44 40.94640 -2.77502 23417 ft 462 kts 76°
2026-05-01 14:45 40.95171 -2.74765 23661 ft 464 kts 76°
2026-05-01 14:45 40.96781 -2.66451 24280 ft 469 kts 76°
2026-05-01 14:45 40.97857 -2.60851 24720 ft 470 kts 76°
2026-05-01 14:46 40.98651 -2.56703 25020 ft 472 kts 76°
2026-05-01 14:46 41.00004 -2.49620 25480 ft 476 kts 76°
2026-05-01 14:46 41.00850 -2.45374 25738 ft 478 kts 72°
2026-05-01 14:47 41.02085 -2.41290 25995 ft 480 kts 63°
2026-05-01 14:47 41.03795 -2.37491 26247 ft 481 kts 53°
2026-05-01 14:47 41.05904 -2.34119 26500 ft 482 kts 45°
2026-05-01 14:48 41.11035 -2.28386 27017 ft 484 kts 37°
2026-05-01 14:48 41.13668 -2.25596 27371 ft 484 kts 37°
2026-05-01 14:48 41.18899 -2.20015 28130 ft 481 kts 37°
2026-05-01 14:49 41.24106 -2.14448 28930 ft 480 kts 37°
2026-05-01 14:49 41.29299 -2.08909 29676 ft 478 kts 37°
2026-05-01 14:50 41.33597 -2.04310 30314 ft 476 kts 37°
2026-05-01 14:50 41.39599 -1.97859 31140 ft 473 kts 37°
2026-05-01 14:51 41.42155 -1.95109 31460 ft 472 kts 37°
2026-05-01 14:51 41.47256 -1.89628 32112 ft 470 kts 37°
2026-05-01 14:52 41.52321 -1.84168 32815 ft 467 kts 37°
2026-05-01 14:52 41.54842 -1.81442 33165 ft 466 kts 37°
2026-05-01 14:52 41.59864 -1.76000 33806 ft 464 kts 37°
2026-05-01 14:53 41.62368 -1.73286 34130 ft 463 kts 37°
2026-05-01 14:53 41.64865 -1.70579 34415 ft 462 kts 37°
2026-05-01 14:53 41.67358 -1.67872 34673 ft 461 kts 37°
2026-05-01 14:53 41.69849 -1.65165 34925 ft 461 kts 37°
2026-05-01 14:54 41.72337 -1.62458 35167 ft 461 kts 37°
2026-05-01 14:54 41.74826 -1.59746 35402 ft 461 kts 37°
2026-05-01 14:54 41.77280 -1.57070 35643 ft 460 kts 37°
2026-05-01 14:54 41.79761 -1.54361 35879 ft 460 kts 37°
2026-05-01 14:55 41.82236 -1.51658 36091 ft 459 kts 37°
2026-05-01 14:55 41.87212 -1.46218 36156 ft 463 kts 37°
2026-05-01 14:56 41.92208 -1.40751 36156 ft 463 kts 37°
2026-05-01 14:56 41.97199 -1.35264 36155 ft 463 kts 37°
2026-05-01 14:57 42.02184 -1.29769 36152 ft 463 kts 37°
2026-05-01 14:57 42.09617 -1.21551 36160 ft 463 kts 37°
2026-05-01 14:58 42.14601 -1.16037 36164 ft 463 kts 37°
2026-05-01 14:58 42.19584 -1.10525 36165 ft 464 kts 38°
2026-05-01 14:59 42.24587 -1.04961 36151 ft 466 kts 38°
2026-05-01 14:59 42.29602 -0.99372 36152 ft 468 kts 38°
2026-05-01 15:00 42.37136 -0.90956 36165 ft 469 kts 38°
2026-05-01 15:01 42.42134 -0.85275 36179 ft 470 kts 43°
2026-05-01 15:01 42.46332 -0.78476 36182 ft 471 kts 52°
2026-05-01 15:02 42.50326 -0.71441 36195 ft 471 kts 52°
2026-05-01 15:02 42.54303 -0.64450 36199 ft 471 kts 52°
2026-05-01 15:03 42.58296 -0.57403 36223 ft 471 kts 52°
2026-05-01 15:03 42.62278 -0.50348 36220 ft 471 kts 52°
2026-05-01 15:04 42.66266 -0.43276 36227 ft 472 kts 52°
2026-05-01 15:04 42.70265 -0.36186 36222 ft 472 kts 52°
2026-05-01 15:05 42.74272 -0.29180 36233 ft 473 kts 51°
2026-05-01 15:05 42.78325 -0.22130 36229 ft 473 kts 52°
2026-05-01 15:06 42.82366 -0.15049 36231 ft 473 kts 52°
2026-05-01 15:06 42.86399 -0.07949 36221 ft 473 kts 52°
2026-05-01 15:07 42.90430 -0.00857 36219 ft 473 kts 52°
2026-05-01 15:07 42.94433 0.06196 36226 ft 472 kts 52°
2026-05-01 15:08 42.98444 0.13300 36225 ft 472 kts 52°
2026-05-01 15:08 43.02450 0.20411 36230 ft 472 kts 52°
2026-05-01 15:09 43.06450 0.27520 36224 ft 471 kts 52°
2026-05-01 15:09 43.10436 0.34634 36221 ft 471 kts 52°
2026-05-01 15:10 43.14421 0.41757 36206 ft 471 kts 52°
2026-05-01 15:10 43.20383 0.52441 36205 ft 470 kts 52°
2026-05-01 15:11 43.26329 0.63141 36203 ft 470 kts 52°
2026-05-01 15:12 43.30265 0.70253 36201 ft 471 kts 52°
2026-05-01 15:12 43.36204 0.80999 36193 ft 470 kts 52°
2026-05-01 15:14 43.46073 0.98939 36197 ft 471 kts 52°
2026-05-01 15:14 43.51988 1.09752 36198 ft 472 kts 52°
2026-05-01 15:15 43.59873 1.24242 36205 ft 473 kts 52°
2026-05-01 15:16 43.67738 1.38758 36213 ft 474 kts 53°
2026-05-01 15:18 43.77591 1.57023 36221 ft 474 kts 53°
2026-05-01 15:19 43.85447 1.71681 36234 ft 474 kts 53°
2026-05-01 15:19 43.91332 1.82706 36241 ft 474 kts 53°
2026-05-01 15:20 43.97176 1.93695 36240 ft 474 kts 53°
2026-05-01 15:21 44.01079 2.01071 36248 ft 474 kts 53°
2026-05-01 15:21 44.04978 2.08451 36253 ft 474 kts 53°
2026-05-01 15:22 44.10826 2.19537 36261 ft 474 kts 53°
2026-05-01 15:22 44.14714 2.26935 36262 ft 474 kts 54°
2026-05-01 15:23 44.18595 2.34353 36247 ft 474 kts 53°
2026-05-01 15:23 44.22479 2.41793 36257 ft 475 kts 54°
2026-05-01 15:24 44.26368 2.49245 36267 ft 475 kts 54°
2026-05-01 15:24 44.30259 2.56717 36280 ft 476 kts 54°
2026-05-01 15:25 44.34136 2.64202 36278 ft 476 kts 54°
2026-05-01 15:25 44.37987 2.71642 36286 ft 475 kts 54°
2026-05-01 15:26 44.41852 2.79130 36287 ft 474 kts 54°
2026-05-01 15:26 44.45701 2.86613 36294 ft 473 kts 54°
2026-05-01 15:27 44.49541 2.94098 36292 ft 473 kts 54°
2026-05-01 15:28 44.55289 3.05338 36277 ft 473 kts 54°
2026-05-01 15:28 44.59106 3.12828 36296 ft 471 kts 54°
2026-05-01 15:29 44.64203 3.24602 36294 ft 470 kts 60°
2026-05-01 15:30 44.70083 3.39254 36282 ft 470 kts 60°
2026-05-01 15:31 44.80160 3.64638 36265 ft 470 kts 61°
2026-05-01 15:32 44.86532 3.80720 36263 ft 470 kts 61°
2026-05-01 15:34 44.95998 4.04885 36265 ft 468 kts 61°